Change the Weather History Date:

Friday, October 12, 2012

  Actual Average Record
Temperature  
Mean Temperature 47 °F 42 °F  
Max Temperature 70 °F 57 °F 78 °F (1964)
Min Temperature 23 °F 28 °F 6 °F (2009)
Degree Days  
Heating Degree Days 18 23  
Month to date heating degree days 289 252  
Since 1 July heating degree days 694 873  
Cooling Degree Days 0 0  
Month to date cooling degree days 0 0  
Year to date cooling degree days 121 81  
Moisture  
Dew Point 19 °F    
Average Humidity 46    
Maximum Humidity 81    
Minimum Humidity 11    
Precipitation  
Precipitation 0.00 in 0.03 in 0.40 in (1920)
Month to date precipitation T 0.34  
Year to date precipitation 7.43 11.22  
Sea Level Pressure  
Sea Level Pressure 29.88 in    
Wind  
Wind Speed 5 mph (West)    
Max Wind Speed 20 mph    
Max Gust Speed 28 mph    
Visibility 9 miles    
Events      
T = Trace of Precipitation, MM = Missing Value Source: NWS Daily Summary

Daily Weather History Graph

Daily Weather History Graph

Search for Another Location

Airport or City:

Trip Planner

Search our weather history database for the weather conditions in past years. The results will help you decide how hot, cold, wet, or windy it might be!

Date:

Astronomy

Oct. 12, 2012 Rise Set
Actual Time 7:43 AM MDT 6:48 PM MDT
Civil Twilight 7:13 AM MDT 7:18 PM MDT
Nautical Twilight 6:38 AM MDT 7:52 PM MDT
Astronomical Twilight 6:04 AM MDT 8:27 PM MDT
Moon 4:22 AM MDT (10/12) 5:06 PM MDT (10/12)
Length of Visible Light 12h 04m
Length of Day
11h 04m
Waning Crescent, 10% of the Moon is Illuminated
Oct 12
Waning Crescent
Oct 15
New
Oct 21
First Quarter
Oct 29
Full
Nov 6
Last Quarter

Hourly Weather History & Observations

Time (MDT) Temp. Windchill Dew Point Humidity Pressure Visibility Wind Dir Wind Speed Gust Speed Precip Events Conditions
12:53 AM 30.0 °F 25.2 °F 23.0 °F 75% 29.99 in 10.0 mi SE 4.6 mph - N/A   Clear
1:53 AM 28.9 °F 25.2 °F 23.0 °F 78% 29.96 in 10.0 mi SSE 3.5 mph - N/A   Clear
2:53 AM 27.0 °F 23.0 °F 21.9 °F 81% 29.95 in 10.0 mi SE 3.5 mph - N/A   Clear
3:53 AM 26.1 °F - 21.9 °F 84% 29.94 in 10.0 mi Calm Calm - N/A   Clear
4:53 AM 26.1 °F - 21.0 °F 81% 29.94 in 10.0 mi Calm Calm - N/A   Clear
5:53 AM 24.1 °F 19.7 °F 19.9 °F 84% 29.95 in 10.0 mi SE 3.5 mph - N/A   Clear
6:53 AM 25.0 °F - 19.9 °F 81% 29.96 in 10.0 mi Calm Calm - N/A   Clear
7:53 AM 24.1 °F - 19.0 °F 81% 29.98 in 10.0 mi Calm Calm - N/A   Clear
8:53 AM 27.0 °F - 21.9 °F 81% 30.00 in 8.0 mi Calm Calm - N/A   Clear
9:53 AM 37.0 °F - 27.0 °F 67% 29.96 in 10.0 mi Calm Calm - N/A   Clear
10:53 AM 48.2 °F - 28.4 °F 46% 29.93 in 10.0 mi NNE 3.5 mph - N/A   Clear
11:53 AM 60.1 °F - 27.0 °F 28% 29.86 in 10.0 mi NNE 3.5 mph - N/A   Clear
12:53 PM 64.9 °F - 21.0 °F 19% 29.82 in 10.0 mi Variable 5.8 mph - N/A   Clear
1:53 PM 66.9 °F - 15.1 °F 14% 29.80 in 10.0 mi SW 11.5 mph 24.2 mph N/A   Clear
2:53 PM 69.1 °F - 14.0 °F 12% 29.78 in 10.0 mi West 8.1 mph 23.0 mph N/A   Clear
3:53 PM 69.1 °F - 14.0 °F 12% 29.77 in 10.0 mi West 9.2 mph - N/A   Clear
4:53 PM 69.1 °F - 12.0 °F 11% 29.76 in 10.0 mi West 15.0 mph 23.0 mph N/A   Clear
5:53 PM 66.0 °F - 15.1 °F 14% 29.80 in 8.0 mi WNW 9.2 mph - N/A   Clear
6:53 PM 60.1 °F - 14.0 °F 16% 29.83 in 7.0 mi WNW 5.8 mph - N/A   Clear
7:53 PM 57.2 °F - 15.8 °F 20% 29.88 in 8.0 mi WNW 5.8 mph - N/A   Partly Cloudy
8:53 PM 60.1 °F - 16.0 °F 18% 29.86 in 7.0 mi NW 10.4 mph - N/A   Scattered Clouds
9:53 PM 57.9 °F - 19.0 °F 22% 29.85 in 6.0 mi WNW 5.8 mph - N/A   Haze
10:53 PM 55.9 °F - 19.0 °F 24% 29.84 in 6.0 mi WNW 6.9 mph - N/A   Haze
11:53 PM 52.0 °F - 19.0 °F 27% 29.82 in 8.0 mi WNW 6.9 mph - N/A   Clear